Header for Extended Forecast Station List Page

Search by: ID | Name | Date | Parm | Value | Avg | % Avg
Sort by: ID | Name | Date | Parm | Value | Avg | % Avg

Enter search or view all records.

Click on id for station plot
#IDNameDateParmValueAvg% Avg
0LEOI1KOOTENAI-AT LEONIA02-11-2019DISCHARGE (KAF)2581333477
1FCFM8NF FLATHEAD-NEAR COLUMBIA FALLS02-11-2019DISCHARGE (KAF)767102375
2WGCM8MF FLATHEAD-NEAR WEST GLACIER02-11-2019DISCHARGE (KAF)81498483
3CFMM8FLATHEAD-AT COLUMBIA FALLS02-11-2019DISCHARGE (KAF)2115290373
4DLGM8CLARK FORK-AT DEER LODGE02-11-2019DISCHARGE (KAF)687887
5DRMM8CLARK FORK-NR DRUMMOND02-11-2019DISCHARGE (KAF)212MM
6RCCM8ROCK CREEK-NEAR CLINTON02-11-2019DISCHARGE (KAF)14316586
7BONM8BLACKFOOT-NEAR BONNER02-11-2019DISCHARGE (KAF)49756189
8ABOM8CLARK FORK-ABOVE MISSOULA02-11-2019DISCHARGE (KAF)883103485
9BITM8BITTERROOT-NEAR MISSOULA02-11-2019DISCHARGE (KAF)67682282
10BELM8CLARK FORK-BELOW MISSOULA02-11-2019DISCHARGE (KAF)1559187683
11STRM8ST. REGIS-NEAR ST. REGIS02-11-2019DISCHARGE (KAF)16522374
12SRGM8CLARK FORK-AT ST REGIS02-11-2019DISCHARGE (KAF)2147257483
13PRTI1PRIEST-NEAR PRIEST RIVER02-11-2019DISCHARGE (KAF)56565287
14SPOW1SPOKANE-AT SPOKANE02-11-2019DISCHARGE (KAF)2359MM
15SATI1ST MARIES-NEAR SANTA02-11-2019DISCHARGE (KAF)15015099
16CIBW1COLUMBIA-AT INTL BOUNDARY02-11-2019DISCHARGE (KAF)17823MM
17LAUW1KETTLE-AT LAURIER02-11-2019DISCHARGE (KAF)998130577
18TONW1OKANOGAN-NEAR TONASKET02-11-2019DISCHARGE (KAF)711101670
19PATW1METHOW-NEAR PATEROS02-11-2019DISCHARGE (KAF)39955672
20ARDW1ENTIAT-NEAR ARDENVOIR02-11-2019DISCHARGE (KAF)8911974
21PESW1WENATCHEE-AT PESHASTIN02-11-2019DISCHARGE (KAF)87697190
22EASW1YAKIMA-AT EASTON02-11-2019DISCHARGE (KAF)7110171
23TNAW1TEANAWAY-BELOW FORKS02-11-2019DISCHARGE (KAF)144131110
24UMTW1YAKIMA-AT UMTANUM02-11-2019DISCHARGE (KAF)56660494
25CLFW1NACHES-NEAR CLIFFDEL02-11-2019DISCHARGE (KAF)25729986
26NACW1NACHES-NEAR NACHES02-11-2019DISCHARGE (KAF)396376105
27PARW1YAKIMA-NEAR PARKER02-11-2019DISCHARGE (KAF)53065581
28KIOW1YAKIMA-AT KIONA02-11-2019DISCHARGE (KAF)846103182
29CHEI1FALL RIVER-NEAR CHESTER02-11-2019DISCHARGE (KAF)272260104
30ANTI1HENRYS FORK-AT ST. ANTHONY02-11-2019DISCHARGE (KAF)577576100
31TEAI1TETON-NEAR ST. ANTHONY02-11-2019DISCHARGE (KAF)20822493
32REXI1HENRYS FORK-AT REXBURG02-11-2019DISCHARGE (KAF)62566994
33JKSW4SNAKE-NEAR JACKSON02-11-2019DISCHARGE (KAF)74982191
34ALPW4SNAKE-NEAR ALPINE02-11-2019DISCHARGE (KAF)998109491
35HEII1SNAKE-NEAR HEISE02-11-2019DISCHARGE (KAF)1555170391
36SIFI1SNAKE-AB EAGLE ROCK NR IDAHO FALLS02-11-2019DISCHARGE (KAF)1560175489
37SHYI1SNAKE-NEAR SHELLEY02-11-2019DISCHARGE (KAF)1443176882
38SNAI1SNAKE-AT BLACKFOOT02-11-2019DISCHARGE (KAF)1182153677
39BFTI1SNAKE-NEAR BLACKFOOT02-11-2019DISCHARGE (KAF)1155152876
40PIHI1PORTNEUF-AT POCATELLO02-11-2019DISCHARGE (KAF)8210280
41MILI1SNAKE-AT MILNER02-11-2019DISCHARGE (KAF)39268457
42HOTI1BRUNEAU-NEAR HOT SPRINGS02-11-2019DISCHARGE (KAF)11115572
43SWAI1SNAKE-BELOW SWAN FALLS02-11-2019DISCHARGE (KAF)2101271977
44HWRI1BIG LOST-AT HOWELL RANCH NEAR CHILLY02-11-2019DISCHARGE (KAF)678182
45HALI1BIG WOOD-AT HAILEY02-11-2019DISCHARGE (KAF)11414281
46BIGI1BOISE-AT GLENWOOD BRIDGE02-11-2019DISCHARGE (KAF)32432998
47PARI1BOISE-NEAR PARMA02-11-2019DISCHARGE (KAF)36941090
48VALO3MALHEUR-NEAR VALE02-11-2019DISCHARGE (KAF)556485
49EMMI1PAYETTE-NEAR EMMETT02-11-2019DISCHARGE (KAF)781103376
50WSRI1WEISER-NEAR WEISER02-11-2019DISCHARGE (KAF)519431120
51WEII1SNAKE-AT WEISER02-11-2019DISCHARGE (KAF)4050530476
52WHBI1SALMON-AT WHITEBIRD02-11-2019DISCHARGE (KAF)3045384979
53TRYO3GRANDE RONDE-TROY02-11-2019DISCHARGE (KAF)1091118392
54ANAW1SNAKE-NEAR ANATONE02-11-2019DISCHARGE (KAF)84571168072
55ORFI1CLEARWATER-AT OROFINO02-11-2019DISCHARGE (KAF)3700376098
56SPDI1CLEARWATER-AT SPALDING02-11-2019DISCHARGE (KAF)5251596288
57TCHW1WALLA WALLA-NEAR TOUCHET02-11-2019DISCHARGE (KAF)217204107
58GIBO3UMATILLA-NEAR GIBBON02-11-2019DISCHARGE (KAF)10285121
59PDTO3UMATILLA-AT PENDLETON02-11-2019DISCHARGE (KAF)228194118
60MYKO3MCKAY CREEK-NEAR PILOT ROCK02-11-2019DISCHARGE (KAF)5338139
61UMAO3UMATILLA-NEAR UMATILLA02-11-2019DISCHARGE (KAF)225158142
62MONO3NF JOHN DAY-AT MONUMENT02-11-2019DISCHARGE (KAF)53462086
63SERO3JOHN DAY-AT SERVICE CK02-11-2019DISCHARGE (KAF)73289882
64MODO3DESCHUTES-AT MOODY NR BIGGS02-11-2019DISCHARGE (KAF)1393156889
65PITW1KLICKITAT-NEAR PITT02-11-2019DISCHARGE (KAF)43553282
66HODO3HOOD-NEAR TUCKER BRIDGE02-11-2019DISCHARGE (KAF)26828395
67UNDW1WHITE SALMON-NEAR UNDERWOOD02-11-2019DISCHARGE (KAF)29436082
68LYDM8KOOTENAI-LIBBY DAM02-11-2019INFLOW (KAF)2151314168
69HHWM8SF FLATHEAD-HUNGRY HORSE DAM02-11-2019INFLOW (KAF)1147134186
70KERM8FLATHEAD-KERR DAM02-11-2019INFLOW (KAF)2370369264
71NOXM8CLARK FORK-NOXON RAPIDS DAM02-11-2019INFLOW (KAF)4363688263
72CABI1CLARK FORK-CABINET GORGE DAM02-11-2019INFLOW (KAF)4836721667
73ALFW1PEND OREILLE-ALBENI FALLS DAM02-11-2019INFLOW (KAF)6009874569
74COEI1COEUR D ALENE-COEUR D ALENE LAKE02-11-2019INFLOW (KAF)2507277390
75LLKW1SPOKANE-AT LONGLAKE02-11-2019INFLOW (KAF)2722332782
76GCDW1COLUMBIA-GRAND COULEE DAM02-11-2019INFLOW (KAF)215752782678
77CHJW1COLUMBIA-CHIEF JOSEPH DAM02-11-2019INFLOW (KAF)205822709876
78WELW1COLUMBIA-WELLS DAM02-11-2019INFLOW (KAF)216712873675
79CHDW1CHELAN-LAKE CHELAN DAM02-11-2019INFLOW (KAF)48661879
80RRHW1COLUMBIA-ROCKY REACH DAM02-11-2019INFLOW (KAF)219682915175
81WANW1COLUMBIA-WANAPUM DAM02-11-2019INFLOW (KAF)228462976177
82PRWW1COLUMBIA-PRIEST RAPIDS DAM02-11-2019INFLOW (KAF)228393023876
83KEDW1YAKIMA-KEECHELUS LAKE02-11-2019INFLOW (KAF)101100100
84KADW1KACHESS-KACHESS DAM02-11-2019INFLOW (KAF)929696
85CLUW1CLE ELUM-CLE ELUM LAKE02-11-2019INFLOW (KAF)299290103
86BUDW1BUMPING-BUMPING LAKE DAM02-11-2019INFLOW (KAF)858599
87RILW1TIETON-RIMROCK LAKE NEAR RIMROCK02-11-2019INFLOW (KAF)11914582
88IPDI1HENRYS FORK-ISLAND PARK DAM02-11-2019INFLOW (KAF)171171100
89JLKW4SNAKE-JACKSON LAKE AT DAM02-11-2019INFLOW (KAF)41844793
90PLDI1SF SNAKE-PALISADES DAM02-11-2019INFLOW (KAF)1526172189
91RIDI1WILLOW CREEK-RIRIE DAM02-11-2019INFLOW (KAF)5542133
92AFRI1SNAKE-AMERICAN FALLS RESERVOIR02-11-2019INFLOW (KAF)1749222079
93MACI1BIG LOST-MACKAY RESERVOIR NEAR MACKAY02-11-2019INFLOW (KAF)618274
94MAGI1BIG WOOD-MAGIC DAM02-11-2019INFLOW (KAF)13719271
95LWRI1LITTLE WOOD-LITTLE WOOD DAM02-11-2019INFLOW (KAF)456371
96OWYO3OWYHEE-OWYHEE DAM02-11-2019INFLOW (KAF)26236372
97ARAI1SF BOISE-ANDERSON RANCH DAM02-11-2019INFLOW (KAF)31740478
98LUCI1BOISE-LUCKY PEAK DAM02-11-2019INFLOW (KAF)897MM
99WRMO3MALHEUR-WARM SPRINGS DAM02-11-2019INFLOW (KAF)8374112
100BERO3MALHEUR-AGENCY VALLEY DAM02-11-2019INFLOW (KAF)325262
101BULO3BULLY CREEK-BULLY CREEK DAM02-11-2019INFLOW (KAF)229248
102CSDI1NF PAYETTE-CASCADE DAM02-11-2019INFLOW (KAF)37640493
103DEDI1DEADWOOD-NEAR LOWMAN02-11-2019INFLOW (KAF)799384
104BRNI1SNAKE-BROWNLEE DAM02-11-2019INFLOW (KAF)4501572979
105DWRI1NF CLEARWATER-DWORSHAK DAM02-11-2019INFLOW (KAF)2406242299
106LGDW1SNAKE-LOWER GRANITE DAM02-11-2019INFLOW (KAF)137081766578
107LGSW1SNAKE-LITTLE GOOSE DAM02-11-2019INFLOW (KAF)137081770077
108LMNW1SNAKE-LOWER MONUMENTAL DAM02-11-2019INFLOW (KAF)139001794677
109IHDW1SNAKE-ICE HARBOR DAM02-11-2019INFLOW (KAF)139001779678
110MCDW1COLUMBIA-MCNARY DAM02-11-2019INFLOW (KAF)375975011175
111JDAO3COLUMBIA-JOHN DAY DAM02-11-2019INFLOW (KAF)398405272876
112TDAO3COLUMBIA-THE DALLES DAM02-11-2019INFLOW (KAF)402015210177
113BONO3COLUMBIA-BONNEVILLE DAM02-11-2019INFLOW (KAF)411625459875
114HOPI1PEND OREILLE-PEND OREILLE LAKE NR HOPE02-11-2019LAKE ELEVATION (FT)MMM
115BFEI1KOOTENAI-AT BONNERS FERRY02-11-2019STAGE (FT)MMM
116SJMI1ST JOE-AT ST MARIES02-11-2019STAGE (FT)MMM